loading
|

OBJECT E, 61231

Orbit data source: Space-Track

OBJECT E, 61231 is a Chinese satellite in SSO that was launched on Tue, 24 Sep 2024 UTC via a JIELONG-3 launch vehicle from the Yellow Sea Launch Area, China (YSLA). Unknown objects in Earth's orbit typically refer to objects detected orbiting the Earth but have not yet been identified or cataloged. These objects could be anything from previously untracked satellites, spent rocket stages, debris from satellite collisions, or even natural meteoroids temporarily captured by Earth's gravity.

Loading next visibility...
Next conjunction unknown
Loading greatness...
OBJECT E details
Identifier
61231, 2024-173E
Orbit
SSO
Last TLE update11 hours ago
Origin
Flag of CNXGZD (CN / PRC)
ManufacturerGuoxing
MissionOperational spacecraft
Bus & MotorXSD, Unknown motor
Mass~25 kg wet, ~25 kg dry
Launch date (UTC)
2024-09-24 (3 weeks ago)
Launch vehicle
JIELONG-3
Launch site
Yellow Sea Launch Area, China (YSLA)
Object typeUnknown
Shape & HBRUnknown
Radar Cross SectionLarge (>1 m²)

Expand to show TLE details & history

TLE from 11 hours ago
0 OBJECT E
1 61231U 24173E   24288.16973307  .00005661  00000-0  23280-3 0  9996
2 61231  97.3976   0.7321 0012570 199.6387 160.4368 15.24489238  2980
Epoch: 2024-10-14T04:04Z
Definitive object data (Epoch: 2024-10-14T04:04:24.937Z)
Latitude-0.00002°
Longitude-83.57252°
Altitude503.557 km
Speed7.608 km/s
True Right ascension00h 02m 55s
True Declination0° 00' 00"
Sunlit
Object was in full shadow at TLE epoch
Predictive object data (real-time)
Latitude-81.91564°
Longitude-17.76276°
Altitude518.432 km
Speed7.604 km/s
Apparent Right ascension22h 02m 54s
Apparent Declination-66° 36' 55"
Sunlit
Object is in daylight
Predictive observer data (real-time)
Local Sidereal Time09:17:19
Azimuth189.793° SSW
Elevation-62.545°
Doppler factor1
Orbital elements
Apogee497.911 km
Perigee480.647 km
Semi-major axis6,867.416 km
Eccentricity0.001257
Inclination97.3976°
RAAN0.7321°
Arg. of periapsis199.6387°
True anomaly160.48496°
Mean anomaly160.4368°
Eccentric anomaly160.46089°
Mean motion3.81376 °/min
BSTAR0.0002328
Period94.4 mins
No data available

OBJECT E Visibility forecast

Observer location: 39.9160978°, -105.1181434

Span
Click to sort rows by Start time (UTC) header in descending order
Start Az.
Max El. time (UTC)
Max El. Az.
Max El.
End time (UTC)
End Az.
5 mins2024-10-14 17:15:14.861Z45.004° ENE2024-10-14 17:17:14.861Z86.928° E23.888°2024-10-14 17:20:14.861Z152.183° SSE
5 mins2024-10-15 05:25:14.861Z200.477° SSW2024-10-15 05:27:14.861Z269.647° W35.003°2024-10-15 05:30:14.861Z333.145° NNW